User: anonymous   Login
Location: Laguna de la Cañada del Gallo
(40.3974°N, 5.2096°W)
Time: 06:50:42
(UTC+00:00)
Language:

SPOT 3 Rocket - Orbit

View from above orbital plane
View from above orbital plane
View from above satellite
View from above satellite

Ground track
Ground track

The orbit data is extracted from the following two-line orbital elements,

1 22830U 93061H   24164.80764232  .00000419  00000-0  17202-3 0  9992
2 22830  98.5711 232.4862 0010792   7.4509 352.6833 14.32130262603204
Epoch (UTC): 12 June 2024 19:23:00
Eccentricity: 0.0010792
inclination: 98.5711°
perigee height: 777 km
apogee height: 792 km
right ascension of ascending node: 232.4862°
argument of perigee: 7.4509°
revolutions per day: 14.32130262
mean anomaly at epoch: 352.6833°
orbit number at epoch: 60320

The dashed part of the orbit path shows where the satellite is in the earth's shadow,  

DLR